E22ZMG-2 Weather Reports


time (UTC)temp
F
wind
direction
speed
knots
gust
knots
rain 1hr
in
rain 24hr
in
rain mn
in
humidity
%
barometer
mb
20260508010712 79 0 0.0 0.0 0.00 0.00 0.00 78 929.0
20260508005648 79 0 0.0 0.0 0.00 0.00 0.00 77 929.0
20260508004624 79 0 0.0 0.0 0.00 0.00 0.00 78 929.0
20260508003559 78 0 0.0 0.0 0.00 0.00 0.00 78 929.0
20260508002535 78 0 0.0 0.0 0.00 0.00 0.00 79 928.0
20260508001511 78 0 0.0 0.0 0.00 0.00 0.00 78 928.0
20260508000449 78 0 0.0 0.0 0.00 0.00 0.00 79 928.0
20260507235422 78 0 0.0 0.0 0.00 0.00 0.00 78 928.0
20260507234359 78 0 0.0 0.0 0.00 0.00 0.00 79 928.0
20260507233334 78 0 0.0 0.0 0.00 0.00 0.00 77 928.0
20260507232309 78 0 0.0 0.0 0.00 0.00 0.00 78 928.0
20260507231245 78 0 0.0 0.0 0.00 0.00 0.00 77 928.0
20260507230221 78 0 0.0 0.0 0.00 0.00 0.00 78 927.0
20260507225157 78 0 0.0 0.0 0.00 0.00 0.00 77 927.0
20260507224133 78 0 0.0 0.0 0.00 0.00 0.00 77 927.0
20260507223109 78 0 0.0 0.0 0.00 0.00 0.00 77 927.0
20260507222045 79 0 0.0 0.0 0.00 0.00 0.00 77 927.0
20260507221021 79 0 0.0 0.0 0.00 0.00 0.00 77 927.0
20260507215957 78 0 0.0 0.0 0.00 0.00 0.00 77 927.0
20260507214932 79 0 0.0 0.0 0.00 0.00 0.00 76 927.0
20260507213908 79 0 0.0 0.0 0.00 0.00 0.00 76 927.0
20260507212844 79 0 0.0 0.0 0.00 0.00 0.00 76 927.0
20260507211820 78 0 0.0 0.0 0.00 0.00 0.00 77 927.0
20260507210756 78 0 0.0 0.0 0.00 0.00 0.00 77 927.0
20260507205732 79 0 0.0 0.0 0.00 0.00 0.00 75 927.0
20260507204708 79 0 0.0 0.0 0.00 0.00 0.00 74 927.0
20260507203643 79 0 0.0 0.0 0.00 0.00 0.00 75 927.0
20260507202619 78 0 0.0 0.0 0.00 0.00 0.00 77 926.0
20260507201555 79 0 0.0 0.0 0.00 0.00 0.00 76 926.0
20260507200531 78 0 0.0 0.0 0.00 0.00 0.00 77 926.0
20260507195507 79 0 0.0 0.0 0.00 0.00 0.00 75 926.0
20260507194443 79 0 0.0 0.0 0.00 0.00 0.00 75 926.0
20260507193418 79 0 0.0 0.0 0.00 0.00 0.00 75 926.0
20260507192355 79 0 0.0 0.0 0.00 0.00 0.00 74 927.0
20260507191331 80 0 0.0 0.0 0.00 0.00 0.00 75 927.0
20260507190307 80 0 0.0 0.0 0.00 0.00 0.00 74 927.0
20260507185243 80 0 0.0 0.0 0.00 0.00 0.00 74 927.0
20260507184219 80 0 0.0 0.0 0.00 0.00 0.00 73 927.0
20260507183155 80 0 0.0 0.0 0.00 0.00 0.00 74 927.0
20260507182131 80 0 0.0 0.0 0.00 0.00 0.00 74 927.0
20260507181107 80 0 0.0 0.0 0.00 0.00 0.00 74 928.0
20260507180043 80 0 0.0 0.0 0.00 0.00 0.00 75 928.0
20260507175018 81 0 0.0 0.0 0.00 0.00 0.00 73 928.0
20260507173954 81 0 0.0 0.0 0.00 0.00 0.00 73 928.0
20260507172930 81 0 0.0 0.0 0.00 0.00 0.00 73 928.0
20260507171906 81 0 0.0 0.0 0.00 0.00 0.00 73 928.0
20260507170842 80 0 0.0 0.0 0.00 0.00 0.00 74 928.0
20260507165818 81 0 0.0 0.0 0.00 0.00 0.00 73 928.0
20260507164754 81 0 0.0 0.0 0.00 0.00 0.00 74 928.0
20260507163729 81 0 0.0 0.0 0.00 0.00 0.00 72 928.0
20260507162706 81 0 0.0 0.0 0.00 0.00 0.00 72 928.0
20260507161641 81 0 0.0 0.0 0.00 0.00 0.00 71 928.0
20260507160617 80 0 0.0 0.0 0.00 0.00 0.00 73 928.0
20260507155553 82 0 0.0 0.0 0.00 0.00 0.00 72 928.0
20260507154529 82 0 0.0 0.0 0.00 0.00 0.00 71 928.0
20260507153505 82 0 0.0 0.0 0.00 0.00 0.00 72 929.0
20260507152441 82 0 0.0 0.0 0.00 0.00 0.00 72 929.0
20260507151417 83 0 0.0 0.0 0.00 0.00 0.00 72 929.0
20260507150353 83 0 0.0 0.0 0.00 0.00 0.00 71 928.0
20260507145328 83 0 0.0 0.0 0.00 0.00 0.00 69 928.0
20260507144304 83 0 0.0 0.0 0.00 0.00 0.00 67 928.0
20260507143240 83 0 0.0 0.0 0.00 0.00 0.00 68 927.0
20260507142217 82 0 0.0 0.0 0.00 0.00 0.00 69 927.0
20260507105210 86 0 0.0 0.0 0.00 0.00 0.00 66 922.0
20260507104145 86 0 0.0 0.0 0.00 0.00 0.00 66 922.0
20260507103121 86 0 0.0 0.0 0.00 0.00 0.00 65 922.0
20260507102056 85 0 0.0 0.0 0.00 0.00 0.00 64 922.0
20260507101032 86 0 0.0 0.0 0.00 0.00 0.00 61 922.0
20260507100006 85 0 0.0 0.0 0.00 0.00 0.00 62 923.0
20260507094941 85 0 0.0 0.0 0.00 0.00 0.00 62 923.0
20260507093916 85 0 0.0 0.0 0.00 0.00 0.00 62 923.0
20260507092852 84 0 0.0 0.0 0.00 0.00 0.00 62 923.0
20260507091827 85 0 0.0 0.0 0.00 0.00 0.00 62 923.0
20260507090802 84 0 0.0 0.0 0.00 0.00 0.00 62 924.0
20260507085738 84 0 0.0 0.0 0.00 0.00 0.00 62 924.0
20260507084714 83 0 0.0 0.0 0.00 0.00 0.00 63 925.0
20260507082152 80 0 0.0 0.0 0.00 0.00 0.00 66 926.0
20260507081128 86 0 0.0 0.0 0.00 0.00 0.00 62 925.0
20260507080104 91 0 0.0 0.0 0.00 0.00 0.00 57 924.0
20260507075040 93 0 0.0 0.0 0.00 0.00 0.00 51 923.0
20260507074016 93 0 0.0 0.0 0.00 0.00 0.00 51 923.0
20260507072951 94 0 0.0 0.0 0.00 0.00 0.00 50 923.0
20260507071926 93 0 0.0 0.0 0.00 0.00 0.00 51 923.0
20260507070901 93 0 0.0 0.0 0.00 0.00 0.00 53 924.0
20260507065837 92 0 0.0 0.0 0.00 0.00 0.00 52 924.0
20260507064813 93 0 0.0 0.0 0.00 0.00 0.00 51 924.0
20260507064110 92 0 0.0 0.0 0.00 0.00 0.00 51 924.0
20260507063045 93 0 0.0 0.0 0.00 0.00 0.00 50 924.0
20260507062021 93 0 0.0 0.0 0.00 0.00 0.00 50 924.0
20260507060955 94 0 0.0 0.0 0.00 0.00 0.00 49 925.0
20260507055931 93 0 0.0 0.0 0.00 0.00 0.00 49 925.0
20260507054905 93 0 0.0 0.0 0.00 0.00 0.00 50 925.0
20260507053841 93 0 0.0 0.0 0.00 0.00 0.00 50 925.0
20260507052816 92 0 0.0 0.0 0.00 0.00 0.00 50 926.0
20260507051751 92 0 0.0 0.0 0.00 0.00 0.00 52 926.0
20260507050727 92 0 0.0 0.0 0.00 0.00 0.00 52 926.0
20260507045702 92 0 0.0 0.0 0.00 0.00 0.00 51 926.0
20260507044638 92 0 0.0 0.0 0.00 0.00 0.00 52 926.0
20260507043614 92 0 0.0 0.0 0.00 0.00 0.00 52 926.0
20260507042549 92 0 0.0 0.0 0.00 0.00 0.00 52 926.0
20260507041525 91 0 0.0 0.0 0.00 0.00 0.00 52 926.0
20260507040500 91 0 0.0 0.0 0.00 0.00 0.00 51 926.0
20260507035436 91 0 0.0 0.0 0.00 0.00 0.00 51 926.0
20260507034412 91 0 0.0 0.0 0.00 0.00 0.00 53 926.0
20260507033348 90 0 0.0 0.0 0.00 0.00 0.00 54 927.0
20260507032324 89 0 0.0 0.0 0.00 0.00 0.00 56 927.0
20260507031300 89 0 0.0 0.0 0.00 0.00 0.00 56 927.0
20260507030235 89 0 0.0 0.0 0.00 0.00 0.00 54 927.0
20260507025210 89 0 0.0 0.0 0.00 0.00 0.00 54 927.0
20260507024146 88 0 0.0 0.0 0.00 0.00 0.00 56 927.0
20260507023120 88 0 0.0 0.0 0.00 0.00 0.00 60 927.0
20260507022056 87 0 0.0 0.0 0.00 0.00 0.00 56 927.0
20260507021031 87 0 0.0 0.0 0.00 0.00 0.00 57 927.0
20260507020006 87 0 0.0 0.0 0.00 0.00 0.00 59 927.0
20260507014942 86 0 0.0 0.0 0.00 0.00 0.00 59 927.0
20260507013918 86 0 0.0 0.0 0.00 0.00 0.00 59 927.0
20260507012853 85 0 0.0 0.0 0.00 0.00 0.00 61 927.0
20260507011828 84 0 0.0 0.0 0.00 0.00 0.00 63 927.0
20260507010803 84 0 0.0 0.0 0.00 0.00 0.00 64 927.0